| time (UTC) | temp C | wind direction | speed KPH | gust KPH | rain 1hr cm | rain 24hr cm | rain mn cm | humidity % | barometer mb |
| 20260509141757 | 8 | 117 | 3.2 | 8.0 | 0.13 | 0.69 | 0.69 | 96 | 1010.0 |
| 20260509141254 | 8 | 176 | 1.6 | 9.7 | 0.05 | 0.66 | 0.66 | 96 | 1009.9 |
| 20260509140751 | 8 | 189 | 1.6 | 11.3 | 0.05 | 0.66 | 0.66 | 96 | 1009.6 |
| 20260509140248 | 8 | 142 | 0.0 | 6.4 | 0.13 | 0.66 | 0.66 | 96 | 1010.0 |
| 20260509135746 | 8 | 224 | 0.0 | 9.7 | 0.13 | 0.66 | 0.66 | 96 | 1009.8 |
| 20260509135243 | 8 | 139 | 3.2 | 11.3 | 0.18 | 0.64 | 0.64 | 96 | 1009.9 |
| 20260509134740 | 8 | 112 | 4.8 | 9.7 | 0.18 | 0.64 | 0.64 | 96 | 1009.9 |
| 20260509134238 | 8 | 137 | 3.2 | 6.4 | 0.13 | 0.61 | 0.61 | 96 | 1009.9 |
| 20260509133735 | 8 | 126 | 4.8 | 9.7 | 0.18 | 0.61 | 0.61 | 96 | 1010.0 |
| 20260509133231 | 8 | 144 | 4.8 | 8.0 | 0.13 | 0.58 | 0.58 | 96 | 1010.2 |
| 20260509132730 | 8 | 122 | 1.6 | 6.4 | 0.13 | 0.58 | 0.58 | 96 | 1009.7 |
| 20260509132228 | 8 | 76 | 0.0 | 6.4 | 0.13 | 0.56 | 0.56 | 96 | 1009.9 |
| 20260509131725 | 8 | 64 | 1.6 | 6.4 | 0.13 | 0.56 | 0.56 | 96 | 1010.1 |
| 20260509131221 | 8 | 125 | 4.8 | 6.4 | 0.18 | 0.53 | 0.53 | 96 | 1010.1 |
| 20260509130717 | 8 | 194 | 0.0 | 4.8 | 0.18 | 0.53 | 0.53 | 96 | 1010.1 |
| 20260509130213 | 8 | 170 | 1.6 | 4.8 | 0.18 | 0.51 | 0.51 | 96 | 1010.1 |
| 20260509125710 | 8 | 99 | 3.2 | 8.0 | 0.18 | 0.51 | 0.51 | 96 | 1010.2 |
| 20260509125207 | 8 | 145 | 3.2 | 9.7 | 0.05 | 0.48 | 0.48 | 96 | 1010.2 |
| 20260509124703 | 8 | 100 | 4.8 | 4.8 | 0.13 | 0.46 | 0.46 | 96 | 1010.1 |
| 20260509124200 | 8 | 142 | 11.3 | 11.3 | 0.13 | 0.46 | 0.46 | 96 | 1010.3 |
| 20260509123658 | 8 | 110 | 3.2 | 4.8 | 0.18 | 0.46 | 0.46 | 96 | 1010.2 |
| 20260509123155 | 8 | 164 | 4.8 | 8.0 | 0.13 | 0.43 | 0.43 | 96 | 1010.3 |
| 20260509122650 | 8 | 158 | 3.2 | 8.0 | 0.18 | 0.43 | 0.43 | 96 | 1010.1 |
| 20260509122148 | 7 | 139 | 6.4 | 9.7 | 0.13 | 0.41 | 0.41 | 96 | 1010.1 |
| 20260509121644 | 7 | 212 | 4.8 | 8.0 | 0.13 | 0.41 | 0.41 | 96 | 1010.3 |
| 20260509121142 | 7 | 132 | 0.0 | 4.8 | 0.13 | 0.38 | 0.38 | 96 | 1010.3 |
| 20260509120640 | 7 | 131 | 4.8 | 8.0 | 0.13 | 0.38 | 0.38 | 96 | 1010.3 |
| 20260509120138 | 7 | 127 | 3.2 | 8.0 | 0.13 | 0.36 | 0.36 | 96 | 1010.3 |
| 20260509115635 | 7 | 112 | 1.6 | 6.4 | 0.13 | 0.36 | 0.36 | 96 | 1010.4 |
| 20260509115132 | 7 | 129 | 3.2 | 4.8 | 0.18 | 0.33 | 0.33 | 96 | 1010.5 |
| 20260509114631 | 7 | 120 | 4.8 | 9.7 | 0.13 | 0.33 | 0.33 | 96 | 1010.4 |
| 20260509114129 | 7 | 133 | 4.8 | 6.4 | 0.13 | 0.30 | 0.30 | 96 | 1010.5 |
| 20260509113627 | 7 | 111 | 4.8 | 8.0 | 0.13 | 0.30 | 0.30 | 96 | 1010.3 |
| 20260509113124 | 7 | 107 | 4.8 | 8.0 | 0.13 | 0.28 | 0.28 | 96 | 1010.6 |
| 20260509112620 | 7 | 110 | 4.8 | 6.4 | 0.18 | 0.28 | 0.28 | 96 | 1010.6 |
| 20260509112118 | 7 | 121 | 0.0 | 4.8 | 0.18 | 0.28 | 0.28 | 96 | 1010.5 |
| 20260509111615 | 7 | 175 | 0.0 | 1.6 | 0.18 | 0.25 | 0.25 | 96 | 1010.4 |
| 20260509111111 | 7 | 189 | 4.8 | 11.3 | 0.18 | 0.23 | 0.23 | 96 | 1010.3 |
| 20260509110609 | 7 | 145 | 4.8 | 8.0 | 0.18 | 0.23 | 0.23 | 96 | 1010.4 |
| 20260509110106 | 7 | 117 | 0.0 | 4.8 | 0.18 | 0.20 | 0.20 | 96 | 1010.2 |
| 20260509105604 | 7 | 98 | 3.2 | 8.0 | 0.13 | 0.18 | 0.18 | 96 | 1010.1 |
| 20260509105101 | 7 | 112 | 4.8 | 11.3 | 0.13 | 0.18 | 0.18 | 96 | 1010.3 |
| 20260509104558 | 7 | 139 | 3.2 | 9.7 | 0.13 | 0.15 | 0.15 | 96 | 1010.3 |
| 20260509104055 | 7 | 137 | 3.2 | 6.4 | 0.13 | 0.15 | 0.15 | 96 | 1010.3 |
| 20260509103553 | 7 | 138 | 3.2 | 6.4 | 0.18 | 0.15 | 0.15 | 96 | 1010.3 |
| 20260509103051 | 7 | 126 | 4.8 | 8.0 | 0.13 | 0.13 | 0.13 | 96 | 1010.1 |
| 20260509102548 | 7 | 121 | 3.2 | 9.7 | 0.05 | 0.10 | 0.10 | 96 | 1010.3 |
| 20260509102045 | 7 | 109 | 3.2 | 8.0 | 0.13 | 0.10 | 0.10 | 96 | 1010.2 |
| 20260509101541 | 7 | 134 | 4.8 | 4.8 | 0.05 | 0.10 | 0.10 | 96 | 1010.2 |
| 20260509101038 | 7 | 144 | 4.8 | 6.4 | 0.00 | 0.10 | 0.10 | 96 | 1010.1 |
| 20260509100535 | 7 | 115 | 3.2 | 6.4 | 0.05 | 0.10 | 0.10 | 96 | 1010.1 |
| 20260509100032 | 7 | 127 | 3.2 | 6.4 | 0.05 | 0.10 | 0.10 | 96 | 1010.0 |
| 20260509095529 | 7 | 118 | 1.6 | 3.2 | 0.00 | 0.08 | 0.08 | 96 | 1010.3 |
| 20260509095026 | 7 | 135 | 0.0 | 3.2 | 0.00 | 0.08 | 0.08 | 96 | 1010.2 |
| 20260509094522 | 7 | 158 | 0.0 | 8.0 | 0.00 | 0.08 | 0.08 | 96 | 1010.2 |
| 20260509094020 | 7 | 180 | 0.0 | 6.4 | 0.00 | 0.08 | 0.08 | 96 | 1010.0 |
| 20260509093518 | 7 | 120 | 1.6 | 4.8 | 0.00 | 0.08 | 0.08 | 96 | 1009.9 |
| 20260509093015 | 7 | 119 | 3.2 | 4.8 | 0.00 | 0.08 | 0.08 | 96 | 1010.2 |
| 20260509092513 | 7 | 164 | 1.6 | 4.8 | 0.00 | 0.08 | 0.08 | 96 | 1010.1 |
| 20260509092011 | 7 | 58 | 3.2 | 4.8 | 0.00 | 0.08 | 0.08 | 96 | 1010.2 |
| 20260509091508 | 7 | 122 | 3.2 | 6.4 | 0.05 | 0.08 | 0.08 | 96 | 1010.1 |
| 20260509091005 | 7 | 112 | 3.2 | 3.2 | 0.05 | 0.08 | 0.08 | 96 | 1010.2 |
| 20260509090502 | 7 | 122 | 3.2 | 4.8 | 0.05 | 0.08 | 0.08 | 96 | 1010.3 |
| 20260509090000 | 7 | 128 | 1.6 | 3.2 | 0.05 | 0.05 | 0.05 | 96 | 1010.3 |
| 20260509085456 | 7 | 98 | 1.6 | 1.6 | 0.05 | 0.05 | 0.05 | 96 | 1010.2 |
| 20260509084953 | 7 | 81 | 3.2 | 3.2 | 0.05 | 0.05 | 0.05 | 96 | 1010.2 |
| 20260509084450 | 7 | 149 | 1.6 | 6.4 | 0.05 | 0.05 | 0.05 | 96 | 1010.4 |
| 20260509083947 | 6 | 125 | 0.0 | 3.2 | 0.00 | 0.05 | 0.05 | 96 | 1010.3 |
| 20260509083444 | 6 | 86 | 1.6 | 4.8 | 0.00 | 0.05 | 0.05 | 96 | 1010.4 |
| 20260509082941 | 6 | 103 | 0.0 | 3.2 | 0.00 | 0.05 | 0.05 | 96 | 1010.6 |
| 20260509082438 | 6 | 69 | 0.0 | 6.4 | 0.00 | 0.05 | 0.05 | 96 | 1010.4 |
| 20260509081935 | 6 | 37 | 0.0 | 3.2 | 0.00 | 0.05 | 0.05 | 96 | 1010.4 |
| 20260509081432 | 6 | 73 | 3.2 | 3.2 | 0.00 | 0.05 | 0.05 | 96 | 1010.7 |
| 20260509080929 | 6 | 101 | 3.2 | 4.8 | 0.00 | 0.05 | 0.05 | 96 | 1010.7 |
| 20260509080427 | 6 | 121 | 3.2 | 4.8 | 0.00 | 0.05 | 0.05 | 96 | 1010.7 |
| 20260509075925 | 6 | 106 | 1.6 | 4.8 | 0.00 | 0.05 | 0.05 | 96 | 1010.8 |
| 20260509075422 | 6 | 158 | 4.8 | 4.8 | 0.00 | 0.05 | 0.05 | 96 | 1010.9 |
| 20260509074920 | 6 | 144 | 3.2 | 6.4 | 0.00 | 0.05 | 0.05 | 96 | 1010.7 |
| 20260509074417 | 6 | 151 | 3.2 | 3.2 | 0.00 | 0.05 | 0.05 | 96 | 1010.8 |
| 20260509073913 | 6 | 107 | 1.6 | 3.2 | 0.00 | 0.05 | 0.05 | 96 | 1010.8 |
| 20260509073410 | 6 | 55 | 0.0 | 1.6 | 0.00 | 0.05 | 0.05 | 95 | 1010.7 |
| 20260509072906 | 6 | 18 | 0.0 | 3.2 | 0.00 | 0.05 | 0.05 | 95 | 1010.7 |
| 20260509072403 | 6 | 128 | 0.0 | 1.6 | 0.05 | 0.05 | 0.05 | 95 | 1010.7 |
| 20260509071859 | 6 | 121 | 1.6 | 3.2 | 0.05 | 0.05 | 0.05 | 95 | 1010.5 |
| 20260509071357 | 5 | 105 | 1.6 | 3.2 | 0.00 | 0.03 | 0.03 | 95 | 1010.5 |
| 20260509070854 | 5 | 95 | 1.6 | 1.6 | 0.00 | 0.03 | 0.03 | 94 | 1010.6 |
| 20260509070351 | 5 | 113 | 1.6 | 3.2 | 0.00 | 0.03 | 0.03 | 94 | 1010.6 |
| 20260509065846 | 5 | 107 | 0.0 | 3.2 | 0.00 | 0.03 | 0.03 | 94 | 1010.5 |
| 20260509065343 | 5 | 100 | 1.6 | 3.2 | 0.05 | 0.03 | 0.03 | 94 | 1010.6 |
| 20260509064839 | 5 | 118 | 0.0 | 3.2 | 0.05 | 0.03 | 0.03 | 94 | 1010.7 |
| 20260509064337 | 5 | 89 | 1.6 | 1.6 | 0.05 | 0.03 | 0.03 | 93 | 1011.0 |
| 20260509063834 | 6 | 59 | 0.0 | 1.6 | 0.00 | 0.03 | 0.03 | 93 | 1010.7 |
| 20260509063330 | 6 | 103 | 0.0 | 3.2 | 0.05 | 0.03 | 0.03 | 92 | 1010.9 |
| 20260509062828 | 6 | 109 | 1.6 | 1.6 | 0.05 | 0.03 | 0.03 | 92 | 1010.9 |
| 20260509062325 | 6 | 76 | 0.0 | 1.6 | 0.00 | 0.00 | 0.00 | 91 | 1011.1 |
| 20260509061822 | 6 | 89 | 0.0 | 3.2 | 0.05 | 0.00 | 0.00 | 91 | 1011.1 |
| 20260509061320 | 6 | 113 | 0.0 | 1.6 | 0.05 | 0.00 | 0.00 | 90 | 1011.1 |
| 20260509060816 | 6 | 103 | 0.0 | 1.6 | 0.00 | 0.00 | 0.00 | 89 | 1011.0 |
| 20260509060313 | 6 | 89 | 0.0 | 3.2 | 0.00 | 0.00 | 0.00 | 88 | 1011.1 |
| 20260509055809 | 6 | 126 | 0.0 | 3.2 | 0.00 | 0.00 | 0.00 | 87 | 1011.2 |
| 20260509055306 | 6 | 111 | 1.6 | 3.2 | 0.00 | 0.00 | 0.00 | 85 | 1011.1 |
| 20260509054801 | 6 | 115 | 1.6 | 3.2 | 0.00 | 0.00 | 0.00 | 84 | 1011.4 |
| 20260509054258 | 6 | 111 | 1.6 | 1.6 | 0.00 | 0.00 | 0.00 | 82 | 1011.5 |
| 20260509053757 | 6 | 92 | 0.0 | 3.2 | 0.00 | 0.00 | 0.00 | 81 | 1011.4 |
| 20260509053253 | 6 | 111 | 1.6 | 3.2 | 0.00 | 0.00 | 0.00 | 81 | 1011.5 |
| 20260509052751 | 6 | 123 | 1.6 | 3.2 | 0.00 | 0.00 | 0.00 | 81 | 1011.4 |
| 20260509052249 | 6 | 94 | 1.6 | 3.2 | 0.00 | 0.00 | 0.00 | 82 | 1011.5 |
| 20260509051746 | 6 | 99 | 1.6 | 3.2 | 0.00 | 0.00 | 0.00 | 81 | 1011.2 |
| 20260509051244 | 6 | 83 | 1.6 | 4.8 | 0.00 | 0.00 | 0.00 | 81 | 1011.3 |
| 20260509050740 | 6 | 107 | 1.6 | 3.2 | 0.00 | 0.00 | 0.00 | 81 | 1011.2 |
| 20260509050237 | 6 | 68 | 1.6 | 3.2 | 0.00 | 0.00 | 0.00 | 79 | 1011.2 |
| 20260509045735 | 6 | 122 | 1.6 | 3.2 | 0.00 | 0.00 | 0.00 | 78 | 1011.2 |
| 20260509045231 | 6 | 92 | 1.6 | 6.4 | 0.00 | 0.00 | 0.00 | 78 | 1011.2 |
| 20260509044729 | 6 | 92 | 3.2 | 3.2 | 0.00 | 0.00 | 0.00 | 77 | 1011.3 |
| 20260509044226 | 7 | 141 | 0.0 | 0.0 | 0.00 | 0.00 | 0.00 | 75 | 1011.5 |
| 20260509043722 | 6 | 122 | 0.0 | 3.2 | 0.00 | 0.00 | 0.00 | 76 | 1011.4 |
| 20260509043218 | 6 | 110 | 3.2 | 3.2 | 0.00 | 0.00 | 0.00 | 78 | 1011.5 |
| 20260509042715 | 6 | 86 | 4.8 | 6.4 | 0.00 | 0.00 | 0.00 | 78 | 1011.4 |
| 20260509042211 | 5 | 168 | 0.0 | 1.6 | 0.00 | 0.00 | 0.00 | 81 | 1011.6 |
| 20260509041708 | 5 | 113 | 0.0 | 3.2 | 0.00 | 0.00 | 0.00 | 81 | 1011.6 |
| 20260509041205 | 5 | 68 | 1.6 | 4.8 | 0.00 | 0.00 | 0.00 | 80 | 1011.4 |
| 20260509040704 | 5 | 57 | 1.6 | 3.2 | 0.00 | 0.00 | 0.00 | 79 | 1011.7 |
| 20260509040200 | 5 | 102 | 1.6 | 3.2 | 0.00 | 0.00 | 0.00 | 78 | 1011.6 |
| 20260509035656 | 5 | 102 | 3.2 | 3.2 | 0.00 | 0.00 | 0.00 | 80 | 1011.6 |
| 20260509035153 | 4 | 95 | 0.0 | 3.2 | 0.00 | 0.00 | 0.00 | 81 | 1011.5 |
| 20260509034651 | 3 | 96 | 1.6 | 3.2 | 0.00 | 0.00 | 0.00 | 82 | 1011.6 |
| 20260509034148 | 4 | 96 | 0.0 | 3.2 | 0.00 | 0.00 | 0.00 | 83 | 1011.8 |
| 20260509033645 | 4 | 89 | 1.6 | 3.2 | 0.00 | 0.00 | 0.00 | 82 | 1011.4 |
| 20260509033142 | 4 | 107 | 1.6 | 3.2 | 0.00 | 0.00 | 0.00 | 83 | 1011.5 |
| 20260509032639 | 4 | 50 | 3.2 | 3.2 | 0.00 | 0.00 | 0.00 | 82 | 1011.8 |
| 20260509032136 | 5 | 87 | 1.6 | 3.2 | 0.00 | 0.00 | 0.00 | 79 | 1011.6 |
| 20260509031634 | 5 | 95 | 3.2 | 3.2 | 0.00 | 0.00 | 0.00 | 77 | 1011.6 |
| 20260509031131 | 5 | 89 | 1.6 | 3.2 | 0.00 | 0.00 | 0.00 | 78 | 1011.7 |
| 20260509030629 | 5 | 73 | 1.6 | 3.2 | 0.00 | 0.00 | 0.00 | 79 | 1011.5 |
| 20260509030126 | 5 | 89 | 1.6 | 3.2 | 0.00 | 0.00 | 0.00 | 79 | 1011.7 |
| 20260509025622 | 5 | 67 | 1.6 | 3.2 | 0.00 | 0.00 | 0.00 | 79 | 1011.7 |
| 20260509025118 | 5 | 85 | 1.6 | 3.2 | 0.00 | 0.00 | 0.00 | 78 | 1011.7 |
| 20260509024613 | 5 | 102 | 1.6 | 3.2 | 0.00 | 0.00 | 0.00 | 78 | 1012.2 |
| 20260509024109 | 5 | 104 | 1.6 | 3.2 | 0.00 | 0.00 | 0.00 | 78 | 1011.8 |
| 20260509023608 | 5 | 92 | 1.6 | 3.2 | 0.00 | 0.00 | 0.00 | 77 | 1011.6 |
| 20260509023104 | 5 | 94 | 3.2 | 3.2 | 0.00 | 0.00 | 0.00 | 76 | 1011.8 |
| 20260509022600 | 5 | 69 | 0.0 | 3.2 | 0.00 | 0.00 | 0.00 | 79 | 1011.7 |
| 20260509022059 | 5 | 55 | 0.0 | 3.2 | 0.00 | 0.00 | 0.00 | 79 | 1011.7 |
| 20260509021555 | 6 | 110 | 0.0 | 3.2 | 0.00 | 0.00 | 0.00 | 78 | 1011.6 |
| 20260509021053 | 6 | 65 | 1.6 | 3.2 | 0.00 | 0.00 | 0.00 | 78 | 1011.6 |
| 20260509020551 | 6 | 70 | 1.6 | 3.2 | 0.00 | 0.00 | 0.00 | 79 | 1011.8 |
| 20260509020047 | 6 | 35 | 3.2 | 3.2 | 0.00 | 0.00 | 0.00 | 78 | 1011.8 |
| 20260509015546 | 6 | 34 | 3.2 | 3.2 | 0.00 | 0.00 | 0.00 | 78 | 1012.0 |
| 20260509015043 | 6 | 116 | 1.6 | 3.2 | 0.00 | 0.00 | 0.00 | 77 | 1011.8 |
| 20260509014540 | 7 | 59 | 0.0 | 1.6 | 0.00 | 0.00 | 0.00 | 76 | 1011.8 |
| 20260509014036 | 7 | 55 | 0.0 | 1.6 | 0.00 | 0.00 | 0.00 | 75 | 1011.8 |
| 20260509013533 | 7 | 52 | 1.6 | 3.2 | 0.00 | 0.00 | 0.00 | 74 | 1011.8 |
| 20260509013029 | 7 | 89 | 1.6 | 1.6 | 0.00 | 0.00 | 0.00 | 74 | 1011.6 |
| 20260509012526 | 7 | 49 | 3.2 | 3.2 | 0.00 | 0.00 | 0.00 | 72 | 1011.7 |
| 20260509012022 | 7 | 80 | 1.6 | 3.2 | 0.00 | 0.00 | 0.00 | 71 | 1011.6 |
| 20260509011520 | 7 | 93 | 1.6 | 3.2 | 0.00 | 0.00 | 0.00 | 68 | 1011.5 |
| 20260509011017 | 8 | 81 | 1.6 | 3.2 | 0.00 | 0.00 | 0.00 | 66 | 1011.5 |
| 20260509010515 | 8 | 74 | 0.0 | 1.6 | 0.00 | 0.00 | 0.00 | 64 | 1011.3 |
| 20260509010012 | 8 | 101 | 1.6 | 3.2 | 0.00 | 0.00 | 0.00 | 60 | 1011.5 |
| 20260509005510 | 8 | 115 | 1.6 | 4.8 | 0.00 | 0.00 | 0.00 | 59 | 1011.3 |
| 20260509005009 | 8 | 125 | 3.2 | 3.2 | 0.00 | 0.00 | 0.00 | 59 | 1011.1 |
| 20260509004507 | 8 | 116 | 1.6 | 3.2 | 0.00 | 0.00 | 0.00 | 59 | 1011.0 |
| 20260509004004 | 8 | 119 | 3.2 | 3.2 | 0.00 | 0.00 | 0.00 | 59 | 1011.0 |
| 20260509003502 | 8 | 116 | 3.2 | 3.2 | 0.00 | 0.00 | 0.00 | 62 | 1011.0 |
| 20260509002959 | 9 | 91 | 0.0 | 3.2 | 0.00 | 0.00 | 0.00 | 60 | 1010.7 |
| 20260509002456 | 9 | 87 | 1.6 | 1.6 | 0.00 | 0.00 | 0.00 | 58 | 1010.8 |
| 20260509001953 | 10 | 125 | 1.6 | 3.2 | 0.00 | 0.00 | 0.00 | 62 | 1010.8 |
| 20260509001450 | 10 | 99 | 0.0 | 0.0 | 0.00 | 0.00 | 0.00 | 58 | 1010.8 |
| 20260509000946 | 10 | 84 | 0.0 | 3.2 | 0.00 | 0.00 | 0.00 | 55 | 1010.7 |
| 20260509000447 | 10 | 113 | 1.6 | 1.6 | 0.00 | 0.00 | 0.00 | 55 | 1010.8 |
| 20260508235940 | 10 | 110 | 0.0 | 1.6 | 0.00 | 0.00 | 0.00 | 55 | 1010.5 |
| 20260508235439 | 10 | 22 | 0.0 | 1.6 | 0.00 | 0.00 | 0.00 | 53 | 1010.6 |
| 20260508234935 | 11 | 116 | 0.0 | 3.2 | 0.00 | 0.00 | 0.00 | 51 | 1010.8 |
| 20260508234432 | 11 | 115 | 1.6 | 3.2 | 0.00 | 0.00 | 0.00 | 53 | 1010.6 |
| 20260508233929 | 11 | 89 | 4.8 | 4.8 | 0.00 | 0.00 | 0.00 | 52 | 1010.5 |
| 20260508233429 | 11 | 50 | 0.0 | 4.8 | 0.00 | 0.00 | 0.00 | 48 | 1010.4 |
| 20260508232925 | 11 | 103 | 0.0 | 1.6 | 0.00 | 0.00 | 0.00 | 47 | 1010.5 |
| 20260508232422 | 11 | 58 | 0.0 | 3.2 | 0.00 | 0.00 | 0.00 | 47 | 1010.4 |
| 20260508231919 | 11 | 237 | 0.0 | 3.2 | 0.00 | 0.00 | 0.00 | 47 | 1010.3 |
| 20260508231416 | 11 | 22 | 0.0 | 4.8 | 0.00 | 0.00 | 0.00 | 45 | 1010.3 |
| 20260508230913 | 12 | 2 | 3.2 | 3.2 | 0.00 | 0.00 | 0.00 | 44 | 1010.4 |
| 20260508230410 | 12 | 301 | 1.6 | 3.2 | 0.00 | 0.00 | 0.00 | 47 | 1010.4 |
| 20260508225907 | 12 | 0 | 0.0 | 6.4 | 0.00 | 0.00 | 0.00 | 44 | 1010.1 |
| 20260508225403 | 13 | 135 | 1.6 | 4.8 | 0.00 | 0.00 | 0.00 | 41 | 1010.3 |
| 20260508224901 | 14 | 113 | 0.0 | 3.2 | 0.00 | 0.00 | 0.00 | 43 | 1010.4 |
| 20260508224359 | 13 | 39 | 0.0 | 4.8 | 0.00 | 0.00 | 0.00 | 44 | 1010.3 |
| 20260508223856 | 12 | 50 | 0.0 | 3.2 | 0.00 | 0.00 | 0.00 | 43 | 1010.3 |
| 20260508223354 | 12 | 168 | 1.6 | 6.4 | 0.00 | 0.00 | 0.00 | 45 | 1010.6 |
| 20260508222851 | 13 | 13 | 3.2 | 4.8 | 0.00 | 0.00 | 0.00 | 43 | 1010.3 |
| 20260508222348 | 12 | 260 | 0.0 | 8.0 | 0.00 | 0.00 | 0.00 | 48 | 1010.2 |
| 20260508221844 | 12 | 330 | 3.2 | 4.8 | 0.00 | 0.00 | 0.00 | 45 | 1010.3 |
| 20260508221340 | 12 | 340 | 3.2 | 4.8 | 0.00 | 0.00 | 0.00 | 45 | 1010.5 |
| 20260508220836 | 13 | 295 | 3.2 | 4.8 | 0.00 | 0.00 | 0.00 | 44 | 1010.3 |
| 20260508220333 | 13 | 321 | 3.2 | 4.8 | 0.00 | 0.00 | 0.00 | 44 | 1010.2 |
| 20260508215830 | 13 | 345 | 3.2 | 8.0 | 0.00 | 0.00 | 0.00 | 44 | 1010.1 |
| 20260508215326 | 13 | 344 | 3.2 | 8.0 | 0.00 | 0.00 | 0.00 | 43 | 1010.5 |
| 20260508214823 | 13 | 337 | 4.8 | 6.4 | 0.00 | 0.00 | 0.00 | 44 | 1010.4 |
| 20260508214320 | 13 | 236 | 0.0 | 8.0 | 0.00 | 0.00 | 0.00 | 42 | 1010.6 |
| 20260508213817 | 13 | 322 | 1.6 | 11.3 | 0.00 | 0.00 | 0.00 | 42 | 1010.4 |
| 20260508213314 | 13 | 258 | 4.8 | 6.4 | 0.00 | 0.00 | 0.00 | 44 | 1010.4 |
| 20260508212810 | 13 | 194 | 4.8 | 8.0 | 0.00 | 0.00 | 0.00 | 42 | 1010.5 |
| 20260508212306 | 13 | 136 | 12.9 | 17.7 | 0.00 | 0.00 | 0.00 | 43 | 1010.5 |
| 20260508211802 | 13 | 339 | 1.6 | 6.4 | 0.00 | 0.00 | 0.00 | 41 | 1010.5 |
| 20260508211258 | 12 | 65 | 3.2 | 4.8 | 0.00 | 0.00 | 0.00 | 44 | 1010.4 |
| 20260508210756 | 12 | 31 | 3.2 | 9.7 | 0.00 | 0.00 | 0.00 | 47 | 1010.3 |
| 20260508210252 | 12 | 1 | 4.8 | 11.3 | 0.00 | 0.00 | 0.00 | 46 | 1010.6 |
| 20260508205749 | 11 | 48 | 4.8 | 8.0 | 0.00 | 0.00 | 0.00 | 48 | 1010.7 |
| 20260508205245 | 11 | 10 | 4.8 | 8.0 | 0.00 | 0.00 | 0.00 | 47 | 1010.8 |
| 20260508204742 | 11 | 334 | 3.2 | 9.7 | 0.00 | 0.00 | 0.00 | 46 | 1010.9 |
| 20260508204238 | 12 | 175 | 0.0 | 11.3 | 0.00 | 0.00 | 0.00 | 45 | 1010.7 |
| 20260508203734 | 12 | 347 | 11.3 | 11.3 | 0.00 | 0.00 | 0.00 | 44 | 1010.7 |
| 20260508203231 | 11 | 31 | 3.2 | 4.8 | 0.00 | 0.00 | 0.00 | 45 | 1010.9 |
| 20260508202727 | 11 | 203 | 4.8 | 20.9 | 0.00 | 0.00 | 0.00 | 46 | 1010.9 |
| 20260508202224 | 11 | 346 | 1.6 | 9.7 | 0.00 | 0.00 | 0.00 | 46 | 1011.0 |
| 20260508201721 | 11 | 329 | 3.2 | 9.7 | 0.00 | 0.00 | 0.00 | 43 | 1010.9 |
| 20260508201218 | 11 | 297 | 3.2 | 11.3 | 0.00 | 0.00 | 0.00 | 46 | 1011.0 |
| 20260508200715 | 11 | 206 | 4.8 | 14.5 | 0.00 | 0.00 | 0.00 | 46 | 1011.0 |
| 20260508200211 | 12 | 224 | 16.1 | 16.1 | 0.00 | 0.00 | 0.00 | 45 | 1011.1 |
| 20260508195708 | 12 | 273 | 0.0 | 8.0 | 0.00 | 0.00 | 0.00 | 44 | 1011.1 |
| 20260508195204 | 11 | 218 | 6.4 | 17.7 | 0.00 | 0.00 | 0.00 | 46 | 1011.2 |
| 20260508194700 | 11 | 285 | 4.8 | 11.3 | 0.00 | 0.00 | 0.00 | 48 | 1011.2 |
| 20260508194157 | 11 | 246 | 9.7 | 16.1 | 0.00 | 0.00 | 0.00 | 48 | 1011.2 |
| 20260508193654 | 11 | 1 | 8.0 | 14.5 | 0.00 | 0.00 | 0.00 | 48 | 1011.2 |
| 20260508193151 | 12 | 254 | 4.8 | 8.0 | 0.00 | 0.00 | 0.00 | 53 | 1011.5 |
| 20260508192648 | 11 | 290 | 3.2 | 11.3 | 0.00 | 0.00 | 0.00 | 57 | 1011.3 |
| 20260508192145 | 10 | 184 | 4.8 | 8.0 | 0.00 | 0.00 | 0.00 | 54 | 1011.6 |
| 20260508191642 | 11 | 357 | 4.8 | 8.0 | 0.00 | 0.00 | 0.00 | 53 | 1011.5 |
| 20260508191138 | 10 | 304 | 0.0 | 8.0 | 0.00 | 0.00 | 0.00 | 56 | 1011.7 |
| 20260508190636 | 9 | 352 | 3.2 | 11.3 | 0.00 | 0.00 | 0.00 | 59 | 1011.6 |
| 20260508190132 | 10 | 304 | 4.8 | 11.3 | 0.00 | 0.00 | 0.00 | 55 | 1011.7 |
| 20260508185629 | 11 | 357 | 9.7 | 9.7 | 0.00 | 0.00 | 0.00 | 57 | 1011.5 |
| 20260508185126 | 10 | 326 | 4.8 | 6.4 | 0.00 | 0.00 | 0.00 | 60 | 1011.7 |
| 20260508184624 | 10 | 236 | 12.9 | 16.1 | 0.00 | 0.00 | 0.00 | 52 | 1012.0 |
| 20260508184121 | 11 | 33 | 0.0 | 6.4 | 0.00 | 0.00 | 0.00 | 52 | 1012.1 |
| 20260508183617 | 11 | 286 | 6.4 | 20.9 | 0.00 | 0.00 | 0.00 | 50 | 1012.0 |
| 20260508183113 | 10 | 1 | 4.8 | 22.5 | 0.00 | 0.00 | 0.00 | 58 | 1012.2 |
| 20260508182609 | 10 | 315 | 4.8 | 24.1 | 0.00 | 0.00 | 0.00 | 60 | 1012.1 |
| 20260508182106 | 10 | 324 | 6.4 | 14.5 | 0.00 | 0.00 | 0.00 | 60 | 1012.2 |
| 20260508181601 | 10 | 248 | 11.3 | 17.7 | 0.00 | 0.00 | 0.00 | 56 | 1012.3 |
| 20260508181059 | 10 | 351 | 8.0 | 14.5 | 0.00 | 0.00 | 0.00 | 62 | 1012.1 |
| 20260508180555 | 10 | 216 | 8.0 | 20.9 | 0.00 | 0.00 | 0.00 | 60 | 1012.4 |
| 20260508180052 | 8 | 247 | 4.8 | 16.1 | 0.00 | 0.00 | 0.00 | 63 | 1012.3 |
| 20260508175548 | 10 | 310 | 4.8 | 17.7 | 0.00 | 0.00 | 0.00 | 61 | 1012.1 |
| 20260508175046 | 8 | 318 | 3.2 | 16.1 | 0.00 | 0.00 | 0.00 | 63 | 1012.2 |
| 20260508174543 | 8 | 12 | 0.0 | 6.4 | 0.00 | 0.00 | 0.00 | 63 | 1012.4 |
| 20260508174040 | 9 | 312 | 1.6 | 8.0 | 0.00 | 0.00 | 0.00 | 66 | 1012.3 |
| 20260508173537 | 7 | 324 | 1.6 | 11.3 | 0.00 | 0.00 | 0.00 | 68 | 1012.4 |
| 20260508173033 | 7 | 234 | 11.3 | 19.3 | 0.00 | 0.00 | 0.00 | 69 | 1012.6 |
| 20260508172531 | 7 | 248 | 8.0 | 9.7 | 0.00 | 0.00 | 0.00 | 71 | 1012.6 |
| 20260508172027 | 7 | 336 | 0.0 | 9.7 | 0.00 | 0.00 | 0.00 | 71 | 1012.4 |
| 20260508171524 | 7 | 249 | 11.3 | 16.1 | 0.00 | 0.00 | 0.00 | 71 | 1012.4 |
| 20260508171020 | 7 | 255 | 11.3 | 20.9 | 0.00 | 0.00 | 0.00 | 69 | 1012.4 |
| 20260508170517 | 8 | 212 | 3.2 | 11.3 | 0.00 | 0.00 | 0.00 | 72 | 1012.5 |
| 20260508170015 | 7 | 231 | 9.7 | 19.3 | 0.00 | 0.00 | 0.00 | 70 | 1012.6 |
| 20260508165512 | 6 | 241 | 9.7 | 17.7 | 0.00 | 0.00 | 0.00 | 73 | 1012.7 |
| 20260508165009 | 7 | 227 | 4.8 | 9.7 | 0.00 | 0.00 | 0.00 | 72 | 1012.7 |
| 20260508164505 | 6 | 330 | 0.0 | 8.0 | 0.00 | 0.00 | 0.00 | 77 | 1012.6 |
| 20260508164002 | 6 | 351 | 4.8 | 6.4 | 0.00 | 0.00 | 0.00 | 80 | 1012.7 |
| 20260508163459 | 6 | 350 | 4.8 | 4.8 | 0.00 | 0.00 | 0.00 | 80 | 1012.7 |
| 20260508162955 | 6 | 226 | 11.3 | 11.3 | 0.00 | 0.00 | 0.00 | 80 | 1012.7 |
| 20260508162453 | 5 | 357 | 6.4 | 9.7 | 0.00 | 0.00 | 0.00 | 82 | 1012.6 |
| 20260508161950 | 5 | 288 | 3.2 | 14.5 | 0.00 | 0.00 | 0.00 | 82 | 1012.7 |
| 20260508161447 | 5 | 353 | 3.2 | 11.3 | 0.00 | 0.00 | 0.00 | 84 | 1012.7 |
| 20260508160944 | 5 | 20 | 8.0 | 14.5 | 0.00 | 0.00 | 0.00 | 85 | 1012.8 |
| 20260508160443 | 4 | 12 | 4.8 | 9.7 | 0.00 | 0.00 | 0.00 | 87 | 1012.8 |
| 20260508155938 | 4 | 355 | 3.2 | 8.0 | 0.00 | 0.00 | 0.00 | 87 | 1013.0 |
| 20260508155436 | 4 | 346 | 1.6 | 6.4 | 0.00 | 0.00 | 0.00 | 88 | 1013.0 |
| 20260508154932 | 4 | 337 | 4.8 | 9.7 | 0.00 | 0.00 | 0.00 | 88 | 1012.9 |
| 20260508154430 | 4 | 317 | 3.2 | 4.8 | 0.00 | 0.00 | 0.00 | 86 | 1012.8 |
| 20260508153927 | 4 | 1 | 3.2 | 9.7 | 0.00 | 0.00 | 0.00 | 88 | 1012.6 |
| 20260508153424 | 4 | 25 | 6.4 | 9.7 | 0.00 | 0.00 | 0.00 | 88 | 1012.6 |
| 20260508152920 | 4 | 0 | 6.4 | 9.7 | 0.00 | 0.00 | 0.00 | 88 | 1012.6 |
| 20260508152416 | 5 | 359 | 3.2 | 8.0 | 0.00 | 0.00 | 0.00 | 87 | 1012.4 |
| 20260508151913 | 5 | 46 | 3.2 | 8.0 | 0.00 | 0.00 | 0.00 | 88 | 1012.3 |
| 20260508151410 | 5 | 12 | 4.8 | 9.7 | 0.00 | 0.00 | 0.00 | 86 | 1012.4 |
| 20260508150906 | 5 | 329 | 0.0 | 4.8 | 0.00 | 0.00 | 0.00 | 84 | 1012.4 |
| 20260508150403 | 5 | 63 | 1.6 | 4.8 | 0.00 | 0.00 | 0.00 | 85 | 1012.4 |
| 20260508145859 | 5 | 9 | 1.6 | 8.0 | 0.00 | 0.00 | 0.00 | 86 | 1012.1 |
| 20260508145355 | 5 | 95 | 4.8 | 6.4 | 0.00 | 0.00 | 0.00 | 86 | 1012.1 |
| 20260508144852 | 5 | 25 | 3.2 | 4.8 | 0.00 | 0.00 | 0.00 | 86 | 1012.3 |
| 20260508144350 | 5 | 224 | 0.0 | 4.8 | 0.00 | 0.00 | 0.00 | 85 | 1012.7 |
| 20260508143847 | 5 | 35 | 0.0 | 1.6 | 0.00 | 0.00 | 0.00 | 86 | 1012.6 |
| 20260508143344 | 5 | 102 | 0.0 | 1.6 | 0.00 | 0.00 | 0.00 | 86 | 1012.4 |
| 20260508142841 | 5 | 141 | 0.0 | 3.2 | 0.00 | 0.00 | 0.00 | 84 | 1012.4 |
| 20260508142338 | 4 | 32 | 0.0 | 1.6 | 0.00 | 0.00 | 0.00 | 85 | 1012.5 |